This is the latest recevied weather packets stored in our database for station/object KE8GJZ-2. If no packets are shown the sender has not sent any weather packets the latest 10 day(s).
| Time | Temp. | Humidity | Pressure | Rain* | Wind** | Luminosity | Snow |
|---|---|---|---|---|---|---|---|
| 1777763241 | 9.44° C | 42% | 1016.5 hPa | 0 mm | - | 50 W/m² | - |
| 1777762939 | 10° C | 44% | 1016.6 hPa | 0 mm | - | 56 W/m² | - |
| 1777762635 | 9.44° C | 41% | 1016.5 hPa | 0 mm | - | 134 W/m² | - |
| 1777762332 | 10° C | 42% | 1016.7 hPa | 0 mm | - | 163 W/m² | - |
| 1777762028 | 10° C | 45% | 1016.4 hPa | 0 mm | - | 159 W/m² | - |
| 1777761725 | 10° C | 43% | 1016.6 hPa | 0 mm | - | 189 W/m² | - |
| 1777761423 | 10° C | 47% | 1016.7 hPa | 0 mm | - | 203 W/m² | - |
| 1777761121 | 10° C | 40% | 1016.4 hPa | 0 mm | - | 214 W/m² | - |
| 1777760818 | 10° C | 42% | 1016.3 hPa | 0 mm | - | 230 W/m² | - |
| 1777760515 | 10° C | 40% | 1016.5 hPa | 0 mm | - | 249 W/m² | - |
| 1777760210 | 10° C | 40% | 1016.6 hPa | 0 mm | - | 262 W/m² | - |
| 1777759908 | 10° C | 44% | 1016.6 hPa | 0 mm | - | 278 W/m² | - |
| 1777759604 | 9.44° C | 43% | 1016.5 hPa | 0 mm | - | 281 W/m² | - |
| 1777759300 | 10° C | 41% | 1016.7 hPa | 0 mm | - | 292 W/m² | - |
| 1777758997 | 10° C | 40% | 1016.4 hPa | 0 mm | - | 301 W/m² | - |
| 1777758694 | 9.44° C | 40% | 1016.4 hPa | 0 mm | - | 323 W/m² | - |
| 1777758391 | 9.44° C | 43% | 1016.6 hPa | 0 mm | - | 348 W/m² | - |
| 1777758088 | 9.44° C | 43% | 1016.8 hPa | 0 mm | - | 353 W/m² | - |
| 1777757785 | 10° C | 38% | 1016.7 hPa | 0 mm | - | 384 W/m² | - |
| 1777757483 | 9.44° C | 43% | 1016.6 hPa | 0 mm | - | 406 W/m² | - |
| 1777757181 | 10° C | 39% | 1016.5 hPa | 0 mm | - | 411 W/m² | - |
| 1777756879 | 10° C | 42% | 1016.8 hPa | 0 mm | - | 414 W/m² | - |
| 1777756575 | 10° C | 41% | 1016.8 hPa | 0 mm | - | 438 W/m² | - |
| 1777756272 | 9.44° C | 42% | 1016.7 hPa | 0 mm | - | 449 W/m² | - |
| 1777755970 | 8.89° C | 41% | 1016.6 hPa | 0 mm | - | 457 W/m² | - |
* Rain latest hour (hover to see other rain measurements)
** Current wind speed in m/s (hover to see current wind gust speed)